TimeCST,TemperatureF,Dew PointF,Humidity,Sea Level PressureIn,VisibilityMPH,Wind Direction,Wind SpeedMPH,Gust SpeedMPH,PrecipitationIn,Events,Conditions,WindDirDegrees,DateUTC
12:53 AM,34.0,32.0,92,29.57,8.0,NW,5.8,-,0.00,,Overcast,310,2012-12-16 06:53:00
1:53 AM,34.0,30.9,89,29.59,10.0,WNW,10.4,-,N/A,,Overcast,300,2012-12-16 07:53:00
2:53 AM,34.0,32.0,92,29.61,8.0,NW,9.2,-,0.00,,Overcast,310,2012-12-16 08:53:00
3:53 AM,35.1,32.0,89,29.63,10.0,WNW,10.4,-,N/A,,Overcast,300,2012-12-16 09:53:00
4:53 AM,35.1,32.0,89,29.65,9.0,WNW,9.2,-,N/A,,Overcast,300,2012-12-16 10:53:00
5:53 AM,35.1,32.0,89,29.66,6.0,West,8.1,-,N/A,,Overcast,280,2012-12-16 11:53:00
6:53 AM,34.0,30.9,89,29.68,3.0,WNW,15.0,-,N/A,,Overcast,290,2012-12-16 12:53:00
7:53 AM,33.1,30.9,92,29.69,4.0,NW,10.4,-,N/A,,Overcast,310,2012-12-16 13:53:00
8:09 AM,32.0,30.2,93,29.67,2.0,WNW,15.0,-,N/A,,Overcast,290,2012-12-16 14:09:00
8:53 AM,30.9,28.0,89,29.70,2.0,WNW,13.8,-,N/A,,Overcast,300,2012-12-16 14:53:00
9:32 AM,30.2,26.6,86,29.70,3.0,WNW,11.5,-,N/A,,Overcast,290,2012-12-16 15:32:00
9:44 AM,30.2,26.6,86,29.70,2.5,WNW,11.5,-,N/A,,Overcast,300,2012-12-16 15:44:00
9:53 AM,30.0,27.0,88,29.73,2.5,WNW,10.4,-,N/A,,Overcast,300,2012-12-16 15:53:00
10:03 AM,30.2,26.6,86,29.72,3.0,WNW,13.8,-,N/A,,Overcast,290,2012-12-16 16:03:00
10:53 AM,28.0,24.1,85,29.75,3.0,NW,12.7,-,N/A,,Overcast,310,2012-12-16 16:53:00
11:34 AM,24.8,21.2,86,29.73,2.5,West,15.0,-,N/A,,Overcast,280,2012-12-16 17:34:00
11:53 AM,25.0,23.0,92,29.75,3.0,WNW,10.4,-,N/A,,Overcast,300,2012-12-16 17:53:00
12:53 PM,25.0,21.9,88,29.74,3.0,NW,9.2,-,N/A,,Overcast,310,2012-12-16 18:53:00
1:26 PM,24.8,21.2,86,29.73,2.5,NW,9.2,-,N/A,,Overcast,310,2012-12-16 19:26:00
1:53 PM,24.1,21.0,88,29.75,2.0,NW,8.1,-,N/A,,Overcast,310,2012-12-16 19:53:00
2:53 PM,21.9,19.9,92,29.76,2.0,WNW,12.7,-,N/A,,Overcast,290,2012-12-16 20:53:00
3:23 PM,21.2,19.4,93,29.75,2.0,NW,12.7,-,N/A,,Overcast,310,2012-12-16 21:23:00
3:30 PM,21.2,19.4,93,29.75,2.0,WNW,11.5,-,N/A,,Overcast,290,2012-12-16 21:30:00
3:45 PM,21.2,19.4,93,29.75,4.0,WNW,8.1,-,N/A,,Overcast,300,2012-12-16 21:45:00
3:53 PM,21.0,19.0,92,29.78,4.0,WNW,11.5,-,N/A,,Overcast,300,2012-12-16 21:53:00
4:44 PM,21.2,17.6,86,29.77,7.0,NW,12.7,-,N/A,,Overcast,310,2012-12-16 22:44:00
4:53 PM,21.0,17.1,85,29.79,8.0,WNW,10.4,-,N/A,,Overcast,300,2012-12-16 22:53:00
5:53 PM,19.9,16.0,85,29.81,8.0,NW,11.5,-,N/A,,Overcast,320,2012-12-16 23:53:00
6:53 PM,21.0,16.0,81,29.82,10.0,NW,13.8,-,N/A,,Overcast,320,2012-12-17 00:53:00
7:53 PM,21.0,16.0,81,29.83,10.0,NW,11.5,-,N/A,,Overcast,320,2012-12-17 01:53:00
8:53 PM,21.0,16.0,81,29.83,10.0,NNW,9.2,-,N/A,,Overcast,340,2012-12-17 02:53:00
9:53 PM,21.0,16.0,81,29.84,10.0,NNW,10.4,-,N/A,,Overcast,330,2012-12-17 03:53:00
10:53 PM,21.0,17.1,85,29.86,10.0,West,6.9,-,N/A,,Overcast,280,2012-12-17 04:53:00
11:53 PM,21.0,17.1,85,29.86,10.0,NW,8.1,-,N/A,,Overcast,310,2012-12-17 05:53:00